Probability
0 0 0 0 0 0 0 0 0 0 0 0 0 0 0 0 0 0 0 0 0 0 0 0 1 1 1 0 0 0 0 1 2 3 3 3 2 3 4 4 4 5 6
0 0 0 0 0 0 0 0 0 0 0 0 0 0 0 0 0 0 0 0 0 0 0 0 0 0 0 0 0 0 0 1 2 2 3 3 2 2 2 3 4 5 5
0 0 0 0 0 0 0 0 0 0 0 0 0 0 0 0 0 0 0 0 0 0 0 0 0 0 0 0 0 0 0 0 1 1 1 2 2 1 1 1 2 3 4
0 0 0 0 0 0 0 0 0 0 0 0 0 0 0 0 0 0 0 0 0 0 0 0 0 0 0 0 0 1 1 1 0 0 0 1 1 1 0 0 0 1 2
0 0 0 0 0 0 0 0 0 0 0 0 0 0 0 0 0 0 0 0 0 0 0 0 0 0 0 0 0 1 2 2 1 0 0 1 1 0 0 0 0 0 1
0 0 0 0 0 0 0 0 0 0 0 0 0 0 0 0 0 0 0 0 0 0 0 0 0 0 0 0 0 0 1 2 2 1 1 1 2 1 0 1 1 1 1
0 0 0 0 0 0 0 0 0 0 0 0 0 0 0 0 0 0 0 0 0 0 0 0 0 0 0 0 0 0 0 1 1 1 1 2 3 2 1 2 2 2 2
0 0 0 0 0 0 0 0 0 0 0 0 0 0 0 0 0 0 0 0 0 0 0 0 0 0 0 0 0 0 0 0 0 1 1 2 3 3 1 2 2 2 2
0 0 0 0 0 0 0 0 0 0 0 0 0 0 0 0 0 0 0 0 0 0 0 0 0 0 0 0 0 0 0 0 0 0 1 1 2 2 1 1 1 1 1
0 0 0 0 0 0 0 0 0 0 0 0 0 0 0 0 0 0 0 0 0 0 0 0 0 0 0 0 0 0 0 0 0 0 0 0 0 1 1 0 0 0 0
0 0 0 0 0 0 0 0 0 0 0 0 0 0 0 0 0 0 0 0 0 0 0 0 0 0 0 0 0 0 0 0 0 0 0 0 0 0 0 0 0 0 0
0 0 0 0 0 0 0 0 0 0 0 0 0 0 0 0 0 0 0 0 0 0 0 0 0 0 0 0 0 0 0 0 0 0 0 0 0 0 0 0 0 0 0
0 0 0 0 0 0 0 0 0 0 0 0 0 0 0 0 0 0 0 0 0 0 0 0 0 0 0 0 0 0 0 0 0 0 0 0 0 0 0 0 0 0 0
0 0 0 0 0 0 0 0 0 0 0 0 0 0 0 0 0 0 0 0 0 0 0 0 0 0 0 0 0 0 0 0 0 0 0 0 0 0 0 0 0 0 0
0 0 0 0 0 0 0 0 0 0 0 0 0 0 0 0 0 0 0 0 0 0 0 0 0 0 0 0 0 0 0 0 0 0 0 0 0 0 0 0 0 0 0
0 0 0 0 0 0 0 0 0 0 0 0 0 0 0 0 0 0 0 0 0 0 0 0 0 0 0 0 0 0 0 0 0 0 0 0 0 0 0 0 0 0 0
0 0 0 0 0 0 0 0 0 0 0 0 0 0 0 0 0 0 0 0 0 0 0 0 0 0 0 0 0 0 0 0 0 0 0 0 0 0 0 0 0 0 0
0 0 0 0 0 0 0 0 0 0 0 0 0 0 0 0 0 0 0 0 0 0 0 0 0 0 0 0 0 0 0 0 0 0 0 0 0 0 0 0 0 0 0
0 0 0 0 0 0 0 0 0 0 0 0 0 0 0 0 0 0 0 0 0 0 0 0 0 0 0 0 0 0 0 0 0 0 0 0 0 0 0 0 0 0 0
0 0 0 0 0 0 0 0 0 0 0 0 0 0 0 0 0 0 0 0 0 0 0 0 0 0 0 0 0 0 0 0 0 0 0 0 0 0 0 0 0 0 0
0 0 0 0 0 0 0 0 0 0 0 0 0 0 0 0 0 0 0 0 0 0 0 0 0 0 0 0 0 0 0 0 0 0 0 0 0 0 0 0 0 0 0
0 0 0 0 0 0 0 0 0 0 0 0 0 0 0 0 0 0 0 0 0 0 0 0 0 0 0 0 0 0 0 0 0 0 0 0 0 0 0 0 0 0 0
0 0 0 0 0 0 0 0 0 0 0 0 0 0 0 0 0 0 0 0 0 0 0 0 0 0 0 0 0 0 0 0 0 0 0 0 0 0 0 0 0 0 0
0 0 0 0 0 0 0 0 0 0 0 0 0 0 0 0 0 0 0 0 1 1 0 0 0 0 0 0 0 0 0 0 0 0 0 0 0 0 0 0 0 0 0
0 0 0 0 0 0 0 0 0 0 0 0 0 0 0 0 0 0 0 0 1 1 1 0 0 0 0 0 0 0 0 0 0 0 0 0 0 0 0 0 0 0 0
0 0 0 0 0 0 0 0 0 0 0 0 0 0 0 0 0 0 0 0 0 1 1 1 0 0 0 0 0 0 0 0 0 0 0 0 0 0 0 0 0 0 0
Wind_Speed
2 2 2 2 2 2 2 3 3 4 4 4 4 4 4 4 4 4 3 7 8 8 8 9 9 8 6 6 6 5 5 5 5 5 6 6 6 5 5 4 4 4 4
1 2 2 2 2 2 2 2 3 3 3 3 4 4 4 4 4 4 4 5 8 9 9 9 9 9 9 7 6 6 5 5 5 5 6 6 6 6 5 4 4 4 4
2 2 2 2 2 2 2 2 3 3 3 4 4 4 4 4 4 4 4 3 4 7 9 9 9 9 9 9 8 6 5 5 5 5 6 6 6 6 5 4 4 4 4
2 2 2 2 2 2 2 2 3 3 3 3 3 3 3 3 4 4 4 4 4 4 6 9 9 9 9 9 9 8 7 6 6 6 6 6 6 6 5 4 4 4 4
3 3 2 2 2 2 2 2 3 2 2 3 2 3 3 3 3 4 4 5 4 4 4 7 10 10 9 9 9 9 9 8 7 6 6 5 5 5 5 5 4 4 5
3 3 3 3 3 3 3 3 3 3 2 2 3 3 3 3 3 3 4 4 4 5 5 5 5 6 9 9 9 9 9 9 8 7 6 6 5 5 5 5 5 4 4
3 3 3 3 3 2 2 2 2 3 3 2 3 3 3 3 3 3 3 3 4 4 5 5 4 4 4 8 8 9 9 9 9 9 8 7 6 5 6 5 5 5 5
2 3 3 2 2 2 3 3 2 2 2 2 2 2 2 3 3 3 3 3 4 3 4 5 4 4 4 3 6 9 9 9 8 8 8 7 6 5 5 4 4 5 5
3 3 3 2 2 2 2 2 2 3 2 2 2 2 2 1 2 2 3 3 3 3 3 3 4 4 4 4 4 6 9 8 8 8 8 8 6 6 5 4 4 4 3
3 3 2 2 2 2 2 2 2 1 2 1 1 2 2 2 1 1 2 2 3 3 3 3 3 4 4 4 5 7 9 8 8 8 8 7 7 6 6 5 4 3 3
2 2 2 2 2 2 2 2 2 2 2 2 1 1 1 2 1 1 1 2 2 2 2 2 2 3 3 3 3 6 8 8 8 8 7 8 7 6 6 6 5 4 3
2 2 2 2 2 2 2 2 2 3 2 2 1 1 1 1 1 1 1 1 2 2 2 2 2 2 3 3 4 7 7 7 8 8 8 7 7 7 6 6 6 5 4
1 1 2 2 1 1 1 2 2 2 2 2 1 0 1 1 1 1 1 0 1 2 2 2 2 2 3 3 3 7 6 7 7 8 7 7 7 6 6 6 6 6 6
1 1 1 2 1 1 2 2 2 1 2 1 1 1 0 0 0 1 2 2 0 1 2 2 2 2 3 2 4 6 4 6 7 7 6 6 6 6 6 6 5 6 6
1 2 2 2 1 1 1 2 1 1 1 1 0 0 0 0 0 0 1 2 2 1 2 2 2 3 3 2 4 3 3 5 6 6 6 5 5 5 5 5 5 5 5
2 2 1 1 1 1 1 2 1 0 1 0 0 1 0 0 0 0 0 1 1 2 2 2 2 3 3 3 4 3 3 6 6 6 6 5 5 5 5 5 5 6 5
2 2 1 1 1 1 1 1 1 1 1 0 1 0 0 0 0 0 0 1 0 1 2 2 2 2 2 2 3 3 2 3 3 6 6 5 5 5 5 5 5 5 5
2 2 2 1 1 1 1 1 1 0 1 0 1 0 1 0 0 0 0 0 1 1 2 2 2 2 2 2 2 2 3 3 3 5 6 5 5 5 5 4 4 5 5
2 1 2 2 1 1 1 1 1 1 1 1 1 1 1 1 1 1 1 1 1 0 1 1 1 1 1 2 2 2 3 2 3 4 5 5 5 4 4 4 4 4 4
2 2 2 2 2 1 2 1 1 1 1 1 1 1 1 2 2 2 1 1 1 0 0 0 1 1 1 2 1 2 2 2 2 3 4 4 4 4 4 4 3 3 3
2 2 2 1 1 1 2 2 2 2 1 1 1 1 2 1 2 1 1 1 2 1 1 0 0 1 1 1 1 1 2 2 2 2 2 2 2 2 2 4 4 4 3
1 1 2 2 2 2 2 3 2 2 2 2 2 2 2 1 1 1 1 1 2 2 2 1 1 1 2 2 1 1 1 1 2 2 1 3 2 2 2 2 4 4 3
1 1 2 2 2 3 3 3 3 2 2 2 2 2 2 2 1 0 1 1 1 1 2 3 2 3 3 3 2 2 2 2 3 2 1 3 2 3 3 3 4 4 4
2 2 2 2 2 3 3 3 3 2 2 2 2 2 3 2 2 2 1 0 1 2 2 2 3 3 3 3 3 3 3 2 2 1 0 2 2 3 3 3 4 3 4
2 2 2 2 2 3 3 2 2 1 1 2 2 2 3 3 3 3 2 2 1 2 2 2 2 2 2 2 1 1 0 0 2 2 0 1 2 3 3 3 3 4 4
2 2 1 2 2 2 3 2 2 1 2 2 2 3 4 4 3 3 3 3 2 3 2 2 2 3 2 1 1 2 2 1 1 2 2 1 1 1 2 3 2 2 2
Wind_Direction
44 33 32 37 33 35 45 50 52 53 51 46 50 59 54 49 42 32 25 42 47 48 51 53 53 51 54 60 60 61 57 53 55 51 44 44 40 33 36 36 33 30 38
62 49 40 39 33 36 42 54 61 66 62 57 53 53 53 49 46 40 32 30 37 45 48 50 50 50 48 53 55 53 55 52 50 45 46 42 34 28 29 37 35 31 37
71 67 58 44 30 40 55 60 53 60 63 58 52 49 49 42 41 35 31 27 21 31 38 44 46 47 43 45 47 46 47 46 45 43 43 37 30 31 33 38 31 43 45
70 71 61 44 37 52 58 70 59 61 57 55 52 44 42 39 38 36 34 29 23 22 24 35 42 44 41 39 41 42 40 41 45 47 41 35 32 34 36 35 39 45 49
64 71 62 42 47 62 57 68 62 71 65 53 59 54 41 41 36 41 38 32 27 27 25 28 34 36 37 37 40 42 43 42 41 42 40 37 33 35 33 35 44 46 49
62 70 66 47 58 70 58 56 68 62 66 57 67 56 39 37 38 41 38 35 33 32 31 31 25 21 29 31 34 37 37 36 36 34 35 34 31 33 33 41 45 46 51
64 68 63 48 58 73 74 73 78 69 50 43 66 41 23 35 41 34 30 37 32 30 33 32 25 20 15 22 24 27 29 30 30 28 28 28 26 30 36 48 48 48 53
67 78 77 62 57 76 68 60 68 73 47 41 83 86 25 3 8 22 27 34 27 28 32 29 27 24 19 15 12 20 22 24 22 22 24 23 20 20 27 39 48 50 51
64 69 76 73 62 76 83 69 69 89 76 27 51 104 120 219 319 348 17 26 21 26 18 17 27 21 20 17 6 9 17 20 19 20 21 17 17 20 27 33 42 44 43
55 62 72 74 68 70 76 67 70 80 102 75 21 42 99 141 136 329 338 2 15 24 11 14 15 15 15 13 9 13 16 14 12 15 16 16 20 20 26 29 32 30 28
47 52 66 71 66 60 66 64 66 72 90 112 96 74 63 57 83 139 286 329 352 358 357 4 10 7 8 8 357 4 13 14 11 10 9 12 16 19 25 29 28 28 29
42 47 65 63 66 66 67 68 73 78 74 84 83 85 114 118 153 135 188 294 318 317 335 359 6 352 356 1 353 2 9 12 11 9 6 8 12 18 28 30 30 30 30
51 33 70 70 63 66 76 72 72 68 78 86 93 92 110 131 154 151 148 198 301 310 331 336 339 343 349 352 343 356 1 6 7 8 10 14 13 17 22 23 23 27 28
153 114 96 97 83 74 73 74 72 61 69 85 77 87 89 27 132 151 156 151 25 331 335 309 316 330 338 335 347 357 348 4 8 8 12 18 17 18 23 21 20 22 24
133 102 95 93 94 95 93 95 76 52 68 68 65 103 150 234 140 167 152 156 156 217 284 289 305 318 328 331 350 348 342 356 8 9 12 14 12 15 21 21 21 20 20
133 128 114 106 102 98 103 101 88 56 85 27 89 81 46 335 351 58 153 146 155 170 225 269 271 301 320 343 352 349 339 354 1 5 5 6 16 23 19 23 25 24 23
148 149 149 140 141 143 133 121 131 132 112 6 354 103 285 229 62 356 74 101 134 154 208 276 282 304 327 343 344 343 345 346 341 359 3 11 16 17 13 17 24 23 21
164 168 159 157 168 151 146 148 156 141 164 234 280 229 259 160 131 239 140 175 206 198 190 252 296 316 314 319 333 338 350 350 340 352 358 5 10 10 11 9 15 18 21
170 174 163 175 189 182 167 175 169 178 200 219 224 227 251 194 223 238 211 222 236 255 191 199 273 295 313 332 341 334 343 342 342 345 347 353 358 359 2 3 5 9 12
174 178 182 188 187 180 172 167 159 163 181 227 240 239 236 220 221 218 211 223 203 146 131 145 290 311 314 320 350 330 330 336 329 341 339 343 348 351 349 351 353 358 359
185 173 166 179 183 188 187 172 172 176 179 210 268 271 255 238 234 223 233 206 176 170 176 186 304 337 325 330 304 282 296 310 308 329 325 326 329 329 326 328 334 340 346
180 163 180 189 206 230 215 203 195 187 194 205 241 271 269 269 274 288 303 228 182 181 189 192 247 261 270 274 287 277 279 325 301 315 323 309 328 306 307 305 329 333 331
175 179 193 190 220 237 221 212 210 197 198 215 230 244 262 268 271 219 330 359 310 272 192 189 204 235 238 240 240 268 263 253 256 271 297 286 302 290 294 309 314 324 334
188 193 202 215 229 244 234 220 208 206 208 226 232 229 231 246 216 178 173 299 307 280 253 224 217 236 239 221 211 218 234 263 290 286 165 265 279 278 297 298 307 321 332
186 202 204 211 226 253 242 228 206 193 211 234 240 237 232 230 220 193 178 205 275 296 294 275 266 273 279 254 178 111 70 327 290 274 262 255 271 284 286 283 294 308 319
190 188 207 226 226 250 252 247 209 196 210 230 250 253 247 242 231 198 190 193 223 259 281 298 308 319 308 284 241 191 193 207 259 268 256 236 257 296 297 283 283 302 303